Location: Andershausen
(51.8462°N, 9.8595°E)
Time: 06:18:45
(UTC+00:00)

IRS-P3 - Pass Details

Date: 18 November 2025
Orbit: 810 x 816 km, 99.0° (Epoch: 11 December)

Event Time Altitude Azimuth Distance (km) Brightness Sun altitude
Rises 16:27:47 0° 148° (SSE) 3,333 7.2 -9.5°
Reaches altitude 10° 16:30:08 10° 144° (SE) 2,404 6.4 -9.8°
Maximum altitude 16:35:20 57° 67° (ENE) 964 4.2 -10.6°
Drops below altitude 10° 16:40:33 10° 351° (N) 2,417 6.5 -11.4°
Sets 16:42:56 0° 347° (NNW) 3,352 7.3 -11.7°
